Weather in Greene

United States     44°11′30″N   70°08′30″W
temp.,
°C
wind,
m/s
gust,
m/s
humid.,
%
clouds,
%
prec.,
mm/h
press.,
hPa
HPBL,
m
24 may, tue
tue2423:00+10nnw2467100 0.0 102590
02:00+8nne2571100 0.0 1027125
05:00+5n2276100 0.0 102843
08:00+11ne35520 0.0 1029605
11:00+15ene22385 0.0 10281548
14:00+19e113468 0.0 10262007
17:00+17sse4343100 0.0 10261083
20:00+10s3777100 0.0 1027258
25 may, wed
wed2523:00+7sw119316 0.0 102817
02:00+8sw1283100 0.0 102875
05:00+9ssw137872 0.0 102793
08:00+13wsw12616 0.0 1029430
11:00+20ssw114856 0.0 10271202
14:00+21ssw1246100 0.0 10261851
17:00+18s455567 0.0 1026557
20:00+12s267643 0.0 1027162
26 may, thu
thu2623:00+8s228886 0.0 102739
02:00+8s119563 0.0 102612
05:00+7ssw1197100 0.0 102617
08:00+14ssw367288 0.0 1026385
11:00+20ssw61040100 0.0 10241247
14:00+20ssw6104398 0.0 10221514
17:00+19sse6115210 0.0 1020821
20:00+14s514675 0.0 1019457
27 may, fri
fri2723:00+16ssw5136643 0.0 1018729
02:00+14ssw515786 0.0 1016573
05:00+14ssw5158823 0.0 1015611
08:00+18ssw5147833 0.0 1014707
11:00+22sw71167100 0.0 10131138
14:00+24ssw6116895 0.1 10111232
17:00+23ssw61476100 0.1 10101442
20:00+22sw6127699 0.2 10101087
28 may, sat
sat2823:00+19sw41297100 0.8 1010755
02:00+18ssw41397100 1.9 1009670
05:00+18ssw41098100 0.2 1008652
08:00+18ssw3998100 0.3 1009577
11:00+18w2599100 3.4 1010361
14:00+17n1399100 11.3 1011211
17:00+16ne2499100 2.1 1012281
20:00+15n1298100 2.6 101572